Погода Тарко-Сале

Хотите узнать прогноз погоды Тарко-Сале? Тогда Вам сюда: Погода Тарко-Сале

Поиск расширенной информации на нашем сайте:

Полезная информация:

Новости сайта



02.01.2020
Опубликован Долгосрочный прогноз погоды по городам России и ближнего зарубежья на январь 2020 года.
Карты: Прогноз на январь и февраль 2020 года, Сравнение прогнозируемой аномалии приземной температуры воздуха на январь 2020 года по разным моделям.




Погода Тарко-Сале - сегодня

Время (UTC), дата Ветер
(°,м/с) 
Видим.   Явления Облачность Т
(°С)
Тd
(°С)
f(%) Тe
(°С)
Pmin
(гПа)
dP
(гПа)
Po
(мм)
O2
(г/м3)
Тmin Tmax R s Состояние
почвы
21 22.10.20 300 (СЗ) н/о    н/о 
-12.4 -13.7 90 -14  1000.7  1.9  748  317           
00 23.10.20 240 (ЮЗ) 4000 м  слаб. снег  10/6 330 м средняя, верхняя 
[Sc|As op|Cs]
-14.3 -15.4 91 -16  1002.1  1.4  749  320           
03 23.10.20 230 (ЮЗ) 10 км  {снег}  10/6 330 м средняя 
[Sc|Ac trans]
-13.5 -14.6 91 -13  1003.1  750  319  -14.4    0.4  13  равномерный
сухой снег
100% 
06 23.10.20 250 (З) 4000 м  слаб. снег  10/6 360 м средняя 
[Sc|As op]
-7.5 -9.2 88 -9  1004.4  1.3  751  312           
09 23.10.20 260 (З) 4000 м  слаб. снег  10/0 средняя, верхняя 
[As op|Cs]
-7.4 -9.2 87 -9  1006.3  752  312           
12 23.10.20 240 (ЮЗ) 4000 м  слаб. снег  10/0 средняя, верхняя 
[As op|Cs]
-9.4 -10.4 92 -11  1008.6  2.2  754  316           
15 23.10.20 230 (ЮЗ) 4000 м  слаб. снег  10/6 330 м верхняя 
[Sc|Cs]
-10 -10.9 93 -10  1010.2  1.6  755  317    -6.9  0.7     
18 23.10.20 230 (ЮЗ) 4000 м  слаб. снег  10/8 500 м средняя 
[Sc|As op]
-9.6 -10.4 94 -9  1011.1  0.9  756  317           
21 23.10.20 230 (ЮЗ) 4000 м  слаб. снег  10/10 360 м 
[Sc]
-8 -9.5 89 -10  1011.9  0.8  756  315           
00 24.10.20 250 (З) 4000 м  слаб. снег  10/10 330 м 
[Sc]
-8.1 -9.6 89 -8  1012.9  757  315           
03 24.10.20 160 (Ю) 4000 м  слаб. снег  10/10 360 м 
[Sc]
-7.9 -9.2 90 -8  1013.8  0.8  758  315  -10.9    0.2  13  равномерный
сухой снег
100% 
06 24.10.20 220 (ЮЗ) 10 км  слаб. ливневой снег  10/8 630 м кучево-дожд., средняя 
[Cb cap|As op]
-6.6 -9.3 81 -6  1014.6  0.8  758  314           
09 24.10.20 240 (ЮЗ) 10 км  в посл. час ливневой снег  10/8 500 м кучево-дожд., средняя 
[Cb cap|Ac As]
-6.4 -9.1 81 -8  1015.5  0.9  759  314           
12 24.10.20 220 (ЮЗ) 4000 м  слаб. ливневой снег  10/8 360 м кучево-дожд., средняя 
[Cb cap|As op]
-7.1 -7.6 96 -7  1016.8  1.3  760  315           
15 24.10.20 190 (Ю) 10 км  {ливн. осадки}  10/10 540 м 
[Sc]
-7.6 -9.1 89 -9  1017.7  0.9  761  316    -6.2  0.2     
18 24.10.20 200 (Ю) 10 км  {ливн. осадки}  10/10 800 м 
[Sc]
-6.9 -8.2 90 -7  1018.1  0.4  761  315           
21 24.10.20 200 (Ю) 4000 м  слаб. ливневой снег  10/10 900 м кучево-дожд. 
[Cb cap]
-6.8 -8.5 88 -6  1018.8  0.7  762  316           
00 25.10.20 190 (Ю) 4000 м  слаб. ливневой снег  10/10 600 м кучево-дожд. 
[Cb cap]
-6.2 -8.5 84 -8  1019.1  0.3  762  315           
03 25.10.20 140 (ЮВ) 4000 м  слаб. ливневой снег  10/10 800 м кучево-дожд. 
[Cb cap]
-6.6 -7.9 90 -6  1019.5  0.4  762  316  -7.6    0.2  13  равномерный
сухой снег
100% 
06 25.10.20 160 (Ю) 4000 м  слаб. ливневой снег  10/8 800 м кучево-дожд., средняя 
[Cb cap|Ac trans]
-5.9 -7.9 86 -6  1019.9  0.4  762  315           
09 25.10.20 120 (ЮВ) 10 км  {ливн. осадки}  10/0 средняя 
[Ac und]
-5.8 -8.6 81 -7  1019.6  -0.3  762  315           
12 25.10.20 120 (ЮВ) 10 км  {ливн. осадки}  10/0 средняя 
[Ac und]
-7.6 -9.7 85 -9  1019.9  0.3  762  317           
15 25.10.20 100 (В) 10 км    4/0 верхняя 
[Ci fib]
-9.6 -11 90 -11  1019.9  762  319    -5.5  0.0     
18 25.10.20 080 (В) 10 км    6/6 630 м 
[Sc]
-10.3 -11.4 92 -12  1019.7  -0.2  762  320           
21 25.10.20 090 (В) 10 км    9/9 600 м 
[Sc]
-9.2 -10.4 91 -11  1019.6  -0.1  762  319           
Время (UTC), дата Ветер
(°,м/с) 
Видим.   Явления Облачность Т
(°С)
Тd
(°С)
f(%) Тe
(°С)
Pmin
(гПа)
dP
(гПа)
Po
(мм)
O2
(г/м3)
Тmin Tmax R s Состояние
почвы

Для получения пояснительной информации подведите курсор к названию столбца.

ПОГОДА Тарко-Сале - архив

Всё, что Вы хотите узнать о погоде Тарко-Сале - удобно и подробно!

Выберите нужную дату (начиная с 1 января 2019* года) и нажмите кнопку "Найти".
Будут отображены архивные сводки погоды по пункту Тарко-Сале, начиная с указанной даты.


Отображать данные в формате CSV (для использования в таблицах Excel)


Внимание! Наш архив погоды предназначен исключительно для личного некоммерческого использования в познавательных целях. Если Вам необходимы официальные справки о состоянии погоды (для производственных, юридических, коммерческих и т.п. целей), обращайтесь в органы Росгидромета.

*Примечание: данная дата относится к архиву по метеостанциям СССР (Россия, СНГ, Балтия).
Архив по метеостанциям Зарубежной Европы и Азии (кроме Китая) хранится 10 дней, по другим регионам земного шара (Китай, Африка, Америка, Австралия, Океания) - 1 день.

Тарко-Сале - район местоположения метеостанции


Название, широта, долгота, высота метеостанции:
Тарко-Сале 64.9°ш. 77.8°д. 27 м над ур. моря [Российская Федерация]

Дополнительная информация

В oтличие oт бoльшинства пoгoдных сайтoв мы публикуем пoдрoбную метеoинфoрмацию в детальнoм прoфессиoнальнoм фoрмате.

Характеристики температуры и влажнoсти вoздуха измеряются на высoте 2 м в тени вдали oт зданий и деревьев.
Скoрoсть ветра измеряется на высoте 10 м (на урoвне рoста челoвека скoрoсть ветра ниже в 1.5-2 раза). Если метеoстанция нахoдится в гoрoде или в лесу, тo скoрoсть ветра занижена на 2-4 м/с пo сравнению с oткрытым местoм. Скoрoсть ветра над акватoриями крупных рек и oзёр, а также на вершинах хoлмoв на 2-5 м/с выше, чем в oбычных услoвиях.
Атмoсфернoе давление в разных тoчках местнoсти мoжет значительнo oтличаться oт давления на метеoстанции, в зависимoсти oт услoвий рельефа (при пoдъёме на 10 м давление пoнижается примернo на 1 мм рт.ст.).